Location: Beetenbrück
(52.8113°N, 9.5946°E)
Time: 22:55:18
(UTC+00:00)

USA 32 - Pass Details

Date: 14 April 2026
Orbit: 775 x 779 km, 85.0° (Epoch: 12 May)

Event Time Altitude Azimuth Distance (km) Brightness Sun altitude
Exits shadow 19:51:09 - 174° (S) 2,618 6.4 -13.2°
Reaches altitude 10° 19:51:54 10° 173° (S) 2,326 6.1 -13.3°
Maximum altitude 19:57:04 66° 92° (E) 854 4.0 -13.9°
Drops below altitude 10° 20:02:16 10° 12° (NNE) 2,344 6.9 -14.5°
Sets 20:04:39 0° 9° (N) 3,277 7.7 -14.8°
